Вернуться в каталог

STARLINK-2523

АктивенСвязьVLEO
NORAD 48306·PAYLOAD·🇺🇸 United States

Запущен Apr 29, 2021 с Cape Canaveral Space Force Station

Loading…

Ближайшие Пролёты (ближайшие 24 часа)

TLE

СвежийSource: CelesTrak SupGP

Эпоха: Sep 14, 2026, 22:08 UTC

1 48306C 21036AG  26257.92270833  .00034644  00000+0  11146-2 0  2571
2 48306  53.1581 298.3766 0001027  92.4890 279.4520 15.31669849    11

Отслеживайте STARLINK-2523 в реальном времени с AllMySat

Download on the App Store